STARLINK-34718, 64911

Orbit data source: Space-Track

STARLINK-34718, 64911 is a payload satellite owned by SpaceX/Seattle (US) in LEO that was launched on Sat, 26 Jul 2025 UTC via an FALCON 9 launch vehicle from the Air Force Eastern Test Range (AFETR). Payload-class satellites include a variety of spacecraft equipped with specific instruments for various scientific and technological missions. These include communications satellites like Starlink; space stations such as the ISS; scientific satellites like the Hubble; Earth observation satellites from companies like Planet Labs, Umbra, and HawkEye 360; GPS; miniature CubeSats for education and research; and military/defense satellites.

Loading next visibility...
Identifier
64911, 2025-157H
Orbit
LEO
Country
Flag of USUS
Related business
Manufacturer
SpaceX/Seattle
Mission
Operational Commercial Communications
Bus & Motor
STARLINK V2MO, Unknown motor
Mass
575 kg wet, ~530 kg dry
Launch date (UTC)
2025-07-26 (10 months ago)
Launch vehicle
FALCON 9
Launch site
Air Force Eastern Test Range (AFETR)
Object type
Payload
Rocket body
Debris
Shape & HBR
Box + 2 Pan, 17.7 m
Radar Cross Section
36.964 m², Large (>1 m²)

Expand to show TLE details & history
Last TLE update: 21 hours ago

TLE from 21 hours ago
0 STARLINK-34718
1 64911U 25157H   26144.99448024  .00022476  00000-0  76869-3 0  9998
2 64911  53.1594 351.4348 0000528  28.4370 331.6659 15.30199550 47807
Epoch: 2026-05-24T23:52Z
TLE epoch observation values (Epoch: 2026-05-24T23:52:03.092Z)
Latitude
-0.00008°
Longitude
110.83322°
Altitude
475.798 km
Speed
7.629 km/s
True Right ascension
23h 25m 44s
True Declination
0° 00' 00"
Sunlit
Object was in daylight at epoch
Visualization orbit readout
Latitude
Unknown
Longitude
Unknown
Altitude
Unknown
Speed
Unknown
Apparent Right ascension
Unknown
Apparent Declination
Unknown
Sunlit
N/A
Visualization observer readout
Local Sidereal Time
06:10:22
Azimuth
Unknown
Elevation
Unknown
Doppler factor
Unknown
Orbital elements
Apogee altitude
475.835 km
Perigee altitude
475.111 km
Semi-major axis
6,853.61 km
Eccentricity
0.00005
Inclination
53.1594°
RAAN
351.4348°
Arg. of periapsis
28.437°
True anomaly
331.66303°
Mean anomaly
331.6659°
Eccentric anomaly
331.66446°
Mean motion
3.82529 °/min
Orbital period
94.11 mins
BSTAR
0.00076869
Loading maneuver chart data...
Computing Atmospheric mass density...
Loading historical data...
Loading historical data...
Loading historical data...
Loading historical data...
Loading historical data...
Loading historical data...
Loading historical data...

Documentation

Showing up to 5 results
|